Weather History for KEGV - March, 2014

Change the Weather History Date:

Sunday, March 2, 2014

  Actual Average Record
Temperature  
Mean Temperature -4 °F -  
Max Temperature 7 °F 40 °F 50 °F (1993)
Min Temperature -16 °F 16 °F -23 °F (2009)
Degree Days  
Heating Degree Days 70    
Moisture  
Dew Point -22 °F    
Average Humidity 46    
Maximum Humidity 65    
Minimum Humidity 30    
Precipitation  
Precipitation 0.00 in - - ()
Sea Level Pressure  
Sea Level Pressure 30.28 in    
Wind  
Wind Speed 4 mph (WNW)    
Max Wind Speed 15 mph    
Max Gust Speed 21 mph    
Visibility 10 miles    
Events      
Averages and records for this station are not official NWS values.
T = Trace of Precipitation, MM = Missing Value Source: NWS Daily Summary

Daily Weather History Graph

Daily Weather History Graph

Search for Another Location

Airport or City:

Trip Planner

Search our weather history database for the weather conditions in past years. The results will help you decide how hot, cold, wet, or windy it might be!

Date:

Astronomy

Mar. 02, 2014 Rise Set
Actual Time 6:33 AM CST 5:45 PM CST
Civil Twilight 6:04 AM CST 6:15 PM CST
Nautical Twilight 5:29 AM CST 6:49 PM CST
Astronomical Twilight 4:54 AM CST 7:24 PM CST
Moon 6:58 AM CST (3/2) 7:49 PM CST (3/2)
Length of Visible Light 12h 10m
Length of Day
11h 11m
Waxing Crescent, 3% of the Moon is Illuminated
Mar 2
Waxing Crescent
Mar 8
First Quarter
Mar 16
Full
Mar 23
Last Quarter
Mar 30
New

Hourly Weather History & Observations

Time (CST) Temp. Windchill Dew Point Humidity Pressure Visibility Wind Dir Wind Speed Gust Speed Precip Events Conditions
12:15 AM -11.4 °F - -23.6 °F 55% 30.28 in 10.0 mi Calm Calm - N/A   Clear
12:35 AM -11.6 °F - -23.4 °F 56% 30.28 in 10.0 mi Calm Calm - N/A   Clear
12:55 AM -12.6 °F - -24.0 °F 57% 30.29 in 10.0 mi Calm Calm - N/A   Clear
1:15 AM -12.8 °F - -23.8 °F 58% 30.29 in 10.0 mi Calm Calm - N/A   Clear
1:35 AM -13.4 °F - -24.2 °F 59% 30.30 in 10.0 mi Calm Calm - N/A   Clear
1:55 AM -13.5 °F - -24.5 °F 58% 30.29 in 10.0 mi Calm Calm - N/A   Clear
2:15 AM -13.9 °F - -24.7 °F 58% 30.29 in 10.0 mi Calm Calm - N/A   Clear
2:35 AM -13.9 °F - -24.7 °F 58% 30.30 in 10.0 mi Calm Calm - N/A   Clear
2:55 AM -16.2 °F - -27.0 °F 58% 30.30 in 10.0 mi Calm Calm - N/A   Clear
3:15 AM -14.8 °F - -25.8 °F 58% 30.30 in 10.0 mi Calm Calm - N/A   Clear
3:35 AM -14.8 °F - -26.0 °F 57% 30.29 in 10.0 mi Calm Calm - N/A   Clear
3:55 AM -14.6 °F - -26.3 °F 56% 30.29 in 10.0 mi Calm Calm - N/A   Clear
4:15 AM -14.8 °F - -26.1 °F 57% 30.30 in 10.0 mi Calm Calm - N/A   Clear
4:35 AM -14.4 °F - -26.0 °F 56% 30.29 in 10.0 mi Calm Calm - N/A   Clear
4:55 AM -14.3 °F - -26.0 °F 56% 30.29 in 10.0 mi Calm Calm - N/A   Clear
5:15 AM -14.6 °F - -26.5 °F 55% 30.29 in 10.0 mi Calm Calm - N/A   Clear
5:35 AM -14.8 °F - -26.5 °F 56% 30.29 in 10.0 mi Calm Calm - N/A   Clear
5:55 AM -14.8 °F - -27.0 °F 54% 30.29 in 10.0 mi Calm Calm - N/A   Clear
6:15 AM -15.2 °F - -27.4 °F 54% 30.29 in 10.0 mi Calm Calm - N/A   Clear
6:35 AM -15.3 °F - -27.6 °F 54% 30.29 in 10.0 mi Calm Calm - N/A   Mostly Cloudy
6:55 AM -15.3 °F - -27.4 °F 55% 30.29 in 10.0 mi Calm Calm - N/A   Overcast
7:15 AM -15.7 °F - -28.1 °F 54% 30.29 in 10.0 mi Calm Calm - N/A   Overcast
7:35 AM -15.3 °F - -27.8 °F 54% 30.30 in 10.0 mi Calm Calm - N/A   Overcast
7:55 AM -15.0 °F -33.7 °F -28.3 °F 51% 30.30 in 10.0 mi West 9.2 mph - N/A   Mostly Cloudy
8:15 AM -14.4 °F -30.3 °F -28.3 °F 50% 30.30 in 10.0 mi WNW 6.9 mph - N/A   Scattered Clouds
8:35 AM -13.5 °F -25.7 °F -28.8 °F 46% 30.29 in 10.0 mi West 4.6 mph - N/A   Scattered Clouds
8:55 AM -11.9 °F -25.7 °F -29.0 °F 43% 30.29 in 10.0 mi WNW 5.8 mph - N/A   Scattered Clouds
9:15 AM -10.5 °F -29.2 °F -29.4 °F 39% 30.29 in 10.0 mi WNW 10.4 mph - N/A   Clear
9:35 AM -9.4 °F -25.6 °F -30.1 °F 36% 30.29 in 10.0 mi WNW 8.1 mph - N/A   Clear
9:55 AM -8.0 °F -26.1 °F -29.9 °F 34% 30.29 in 10.0 mi WNW 10.4 mph - N/A   Clear
10:15 AM -6.3 °F -21.9 °F -28.7 °F 33% 30.28 in 10.0 mi West 8.1 mph - N/A   Clear
10:35 AM -4.7 °F -19.9 °F -27.6 °F 33% 30.28 in 10.0 mi West 8.1 mph - N/A   Clear
10:55 AM -3.5 °F -20.5 °F -26.3 °F 33% 30.28 in 10.0 mi West 10.4 mph - N/A   Clear
11:15 AM -2.6 °F -18.4 °F -26.5 °F 31% 30.28 in 10.0 mi West 9.2 mph - N/A   Clear
11:35 AM -1.5 °F -19.0 °F -25.4 °F 31% 30.28 in 10.0 mi NW 11.5 mph 16.1 mph N/A   Clear
11:55 AM -0.6 °F -13.6 °F -24.7 °F 31% 30.27 in 10.0 mi West 6.9 mph - N/A   Clear
12:15 PM 0.1 °F -15.1 °F -24.3 °F 31% 30.26 in 10.0 mi West 9.2 mph - N/A   Clear
12:35 PM 1.4 °F -12.5 °F -23.6 °F 30% 30.25 in 10.0 mi West 8.1 mph - N/A   Clear
12:55 PM 2.7 °F -10.9 °F -22.5 °F 30% 30.25 in 10.0 mi WNW 8.1 mph - N/A   Clear
1:15 PM 3.2 °F -10.3 °F -21.6 °F 31% 30.25 in 10.0 mi West 8.1 mph 17.3 mph N/A   Clear
1:35 PM 4.1 °F -10.2 °F -20.6 °F 31% 30.24 in 10.0 mi West 9.2 mph - N/A   Clear
1:55 PM 4.6 °F -11.3 °F -19.7 °F 32% 30.24 in 10.0 mi West 11.5 mph 16.1 mph N/A   Clear
2:15 PM 5.5 °F -10.2 °F -19.8 °F 30% 30.24 in 10.0 mi West 11.5 mph 16.1 mph N/A   Clear
2:35 PM 5.9 °F -9.7 °F -18.9 °F 31% 30.23 in 10.0 mi West 11.5 mph - N/A   Clear
2:55 PM 6.1 °F -11.6 °F -18.6 °F 31% 30.23 in 10.0 mi West 15.0 mph 20.7 mph N/A   Clear
3:15 PM 6.8 °F -10.0 °F -17.9 °F 32% 30.22 in 10.0 mi NW 13.8 mph 18.4 mph N/A   Clear
3:35 PM 7.2 °F -9.6 °F -17.1 °F 32% 30.22 in 10.0 mi West 13.8 mph - N/A   Clear
3:55 PM 7.5 °F -5.0 °F -17.0 °F 32% 30.22 in 10.0 mi West 8.1 mph - N/A   Clear
4:15 PM 7.3 °F -8.6 °F -16.1 °F 34% 30.21 in 10.0 mi WNW 12.7 mph 17.3 mph N/A   Clear
4:35 PM 7.2 °F -8.9 °F -14.1 °F 37% 30.22 in 10.0 mi WNW 12.7 mph 20.7 mph N/A   Clear
4:55 PM 6.8 °F -6.9 °F -14.1 °F 38% 30.22 in 10.0 mi WNW 9.2 mph 18.4 mph N/A   Clear
5:15 PM 5.7 °F -7.2 °F -13.5 °F 41% 30.23 in 10.0 mi NW 8.1 mph - N/A   Clear
5:35 PM 5.0 °F -10.0 °F -13.9 °F 42% 30.24 in 10.0 mi WNW 10.4 mph - N/A   Clear
5:55 PM 3.7 °F -10.6 °F -14.4 °F 43% 30.25 in 10.0 mi NW 9.2 mph - N/A   Clear
6:15 PM 2.8 °F -12.7 °F -15.3 °F 43% 30.26 in 10.0 mi NW 10.4 mph - N/A   Clear
6:35 PM 2.1 °F -9.0 °F -15.9 °F 43% 30.26 in 10.0 mi NW 5.8 mph - N/A   Clear
6:55 PM 0.5 °F -11.0 °F -15.7 °F 47% 30.27 in 10.0 mi NW 5.8 mph - N/A   Clear
7:15 PM 0.3 °F -13.8 °F -16.6 °F 45% 30.27 in 10.0 mi NW 8.1 mph - N/A   Clear
7:35 PM -0.4 °F -10.4 °F -17.0 °F 46% 30.27 in 10.0 mi NW 4.6 mph - N/A   Clear
7:55 PM -1.5 °F -11.6 °F -17.1 °F 48% 30.28 in 10.0 mi NW 4.6 mph - N/A   Clear
8:15 PM -1.7 °F -13.5 °F -17.5 °F 47% 30.28 in 10.0 mi NW 5.8 mph - N/A   Clear
8:35 PM -2.9 °F -15.0 °F -18.0 °F 49% 30.29 in 10.0 mi NW 5.8 mph - N/A   Clear
8:55 PM -2.7 °F -11.0 °F -17.7 °F 49% 30.29 in 10.0 mi NW 3.5 mph - N/A   Clear
9:15 PM -4.0 °F -14.6 °F -18.6 °F 50% 30.30 in 10.0 mi NW 4.6 mph - N/A   Clear
9:35 PM -4.4 °F -18.2 °F -19.1 °F 49% 30.30 in 10.0 mi NW 6.9 mph - N/A   Clear
9:55 PM -4.4 °F -16.7 °F -18.8 °F 50% 30.31 in 10.0 mi WNW 5.8 mph - N/A   Clear
10:15 PM -4.9 °F -17.4 °F -18.8 °F 51% 30.31 in 10.0 mi WNW 5.8 mph - N/A   Clear
10:35 PM -5.4 °F -16.2 °F -19.1 °F 52% 30.32 in 10.0 mi NW 4.6 mph - N/A   Clear
10:55 PM -6.0 °F - -19.3 °F 53% 30.32 in 10.0 mi Calm Calm - N/A   Clear
11:15 PM -8.7 °F - -20.7 °F 56% 30.32 in 10.0 mi Calm Calm - N/A   Clear
11:35 PM -11.7 °F - -21.8 °F 61% 30.32 in 10.0 mi Calm Calm - N/A   Clear
11:55 PM -12.8 °F - -21.5 °F 65% 30.32 in 10.0 mi Calm Calm - N/A   Clear